Flag for Germany Weather past 2 weeks in Düsseldorf, North Rhine-Westphalia, Germany

Now
81 °F

Sunny.


Feels Like: 81 °F
Forecast: 65 / 82 °F
Wind: 6 mph from Northwest

Location: Duesseldorf

Current Time: Aug 1, 2014 at 6:46:55 PM

Latest Report: Aug 1, 2014 at 6:20 PM


Visibility: 10 mi

Pressure: 29.80 "Hg

Humidity: 42%

Dew point: 55 °F

Location of DüsseldorfLocation

Historic Weather in Düsseldorf — Graph

°F

Düsseldorf temperature yesterday

Maximum temperature yesterday: 79 °F (at 5:50 PM)
Minimum temperature yesterday: 55 °F (at 5:20 AM)
Average temperature yesterday: 67 °F

Past Weeks' High & Low Weather Summary

 TemperatureHumidityPressure
High93 °F (Jul 19, 3:50 PM)100% (Jul 21, 11:20 PM)30.12 "Hg (Jul 21, 11:20 PM)
Low55 °F (Jul 31, 5:20 AM)23% (Jul 19, 4:50 PM)29.77 "Hg (Jul 19, 10:50 PM)
Average72 °F69%29.93 "Hg
* Reported Jul 17 5:20 PM — Aug 1 5:50 PM, Düsseldorf, Weather by CustomWeather, © 2014

Note: Actual official high and low records may vary slightly from our data, if they occured in-between our weather recording intervals... More about our weather records

Advertising

Düsseldorf weather history for previous 24 hours

 ConditionsComfort  
Time TempWeatherWind HumidityBarometerVisibility
5:50 PM
Aug 1
81 °FSunny.7 mph45%29.80 "Hg10 mi
5:20 PM81 °FSunny.5 mph42%29.80 "Hg10 mi
4:50 PM81 °FSunny.6 mph45%29.80 "Hg10 mi
4:20 PM81 °FPassing clouds.5 mph39%29.80 "HgN/A
3:50 PM81 °FSunny.6 mph42%29.80 "Hg10 mi
3:20 PM81 °FPassing clouds.6 mph39%29.83 "HgN/A
2:50 PM81 °FSunny.1 mph42%29.83 "Hg10 mi
2:20 PM79 °FSunny.3 mph42%29.83 "Hg10 mi
1:50 PM79 °FPassing clouds.5 mph42%29.83 "HgN/A
1:20 PM81 °FPassing clouds.5 mph42%29.83 "HgN/A
12:50 PM79 °FSunny.5 mph42%29.86 "Hg10 mi
12:20 PM79 °FSunny.6 mph42%29.86 "Hg10 mi
11:50 AM77 °FSunny.3 mph47%29.86 "Hg10 mi
11:20 AM75 °FSunny.5 mph54%29.86 "Hg10 mi
10:50 AM75 °FSunny.5 mph54%29.86 "Hg10 mi
10:20 AM73 °FSunny.6 mph57%29.89 "Hg10 mi
9:50 AM72 °FSunny.6 mph61%29.89 "Hg10 mi
9:20 AM70 °FSunny.6 mph64%29.89 "Hg10 mi
8:50 AM66 °FSunny.6 mph68%29.89 "Hg10 mi
8:20 AM66 °FSunny.7 mph68%29.86 "Hg10 mi
7:50 AM64 °FSunny.8 mph73%29.86 "Hg10 mi
7:20 AM64 °FSunny.9 mph73%29.86 "Hg10 mi
6:50 AM64 °FClear.6 mph73%29.86 "Hg10 mi
6:20 AM63 °FClear.6 mph73%29.86 "Hg10 mi
5:50 AM63 °FClear.5 mph73%29.89 "Hg10 mi
5:20 AM63 °FClear.2 mph73%29.89 "Hg10 mi
4:50 AM63 °FClear.7 mph73%29.89 "Hg10 mi
4:20 AM64 °FClear.7 mph68%29.89 "Hg10 mi
3:50 AM63 °FClear.7 mph73%29.89 "Hg10 mi
3:20 AM63 °FClear.7 mph77%29.89 "Hg10 mi
2:50 AM63 °FClear.6 mph77%29.89 "Hg10 mi
2:20 AM64 °FClear.2 mph73%29.89 "Hg10 mi
1:50 AM63 °FClear.2 mph77%29.89 "Hg10 mi
1:20 AM63 °FClear.3 mph77%29.89 "Hg10 mi
12:50 AM63 °FClear.5 mph77%29.92 "Hg10 mi
12:20 AM63 °FClear.3 mph77%29.92 "Hg10 mi
11:50 PM
Jul 31
64 °FClear.5 mph78%29.92 "Hg10 mi
11:20 PM64 °FClear.3 mph78%29.92 "Hg10 mi
10:50 PM64 °FClear.5 mph78%29.92 "Hg10 mi
10:20 PM66 °FSunny.5 mph73%29.92 "Hg10 mi
9:50 PM68 °FSunny.3 mph69%29.92 "Hg10 mi
9:20 PM72 °FSunny.5 mph61%29.92 "Hg10 mi
8:50 PM73 °FSunny.5 mph53%29.92 "Hg10 mi
8:20 PM75 °FSunny.5 mph47%29.92 "Hg10 mi
7:50 PM77 °FSunny.3 mph42%29.92 "Hg10 mi
7:20 PM77 °FSunny.3 mph39%29.92 "Hg10 mi
6:50 PM79 °FSunny.2 mph39%29.92 "Hg10 mi
6:20 PM77 °FSunny.5 mph39%29.92 "Hg10 mi
Weather by CustomWeather, © 2014

See weather overviewHow to use our weather pages